COSMOS 1110

Satellite information

Favourite Embed

Satellite Type and Status

PAYLOADIN ORBIT

Key statistics

Satellite COSMOS 1110 at a glance.

Uptime

16915

Days in orbit

Revolutions

≈ 14.3

Per day

Orbit

LEO

Low Earth Orbit

Inclination

74.0

Latest

Satellite identification and parameters

Extended collection of information and parameters for COSMOS 1110.

Object identification

Identified? True

Debris? False

Object name: COSMOS 1110

International designator: 1979-060A

Object number (NORAD): 11425

Object ID (CCSDS): 11425

Country: COMMONWEALTH OF INDEPENDENT STATES (CIS)

Current information (Y/N): Y

RCS size: LARGE

Orbital parameters

Period: 100.409 minutes

Inclination: 74.0146 deg

SMA: 7156.064 km

Apoapsis: 787.012 km

Periapsis: 768.846 km

RAAN: 330.7536 deg

Eccentricy: 0.00126926

Argument of periapsis: 92.1182 deg

Mean anomaly: 268.1424 deg

Mean motion: 14.34139679 rev/day

Mean motion (dot): 0.00000263 rev/day2

B* drag term: 0.00010328222 1/REarth

Two-line elements (TLE)

Creation date: Oct. 19, 2025, 2:20 a.m.

Reference frame: TEME

Reference center: EARTH

Epoch: Oct. 18, 2025, 8:17 p.m. UTC

TLE line 0: 0 COSMOS 1110

TLE line 1: 1 11425U 79060A 25291.84554590 .00000263 00000-0 10328-3 0 9992

TLE line 2: 2 11425 74.0146 330.7536 0012693 92.1182 268.1424 14.34139679419781

Live tracking on map

Real-time ground track for satellite COSMOS 1110.

In-orbit conjunctions

A list of the most updated potential collisions computed for object COSMOS 1110.

Target Orbit TCA Probability of collision Miss distance Type
CZ-6A DEB SSO 2025-09-27 12:29:20 0.0001104883 165.0 (m) DEBRIS
IRIDIUM 63 LEO 2025-06-29 16:52:40 0.0001229858 445.0 (m) PAYLOAD
CZ-6A DEB SSO 2025-06-29 14:58:36 0.0002019052 470.0 (m) DEBRIS
CZ-6A DEB SSO 2025-03-31 18:14:59 0.0001980972 87.0 (m) DEBRIS
FENGYUN 1C DEB SSO 2025-03-26 13:24:07 0.0002446534 203.0 (m) DEBRIS

Associated space launch

Military communications satellite

COSMOS 1110 was lifted into orbit during the mission ‘Kosmos-3M | Strela-2M 20’, on board a Kosmos-3M space rocket.

The launch took place on June 28, 1979, 8:09 p.m. from 132/1 (132L).

For more information about the launch, click the button.

Launch to space Kosmos-3M | Strela-2M 20
Kosmos-3M | Strela-2M 20

Agency: N/A

Status: Launch Successful

Launch date: June 28, 1979, 8:09 p.m. UTC

Rocket: Kosmos-3M

Launch pad: 132/1 (132L)

Location: Plesetsk Cosmodrome, Russian Federation

...

Latest news about this satellite

There are no fresh news available about this satellite. Check back as we update our databases every day.


Newsletter sign-up

Weekly statistics, charts and insights to help you stay on top of the space industry.